Year,Month,Day,Hour,Minute,Value (Times are PST for temperature in C)
2015,02,07,00,00,8.90
2015,02,07,00,01,8.90
2015,02,07,00,02,8.90
2015,02,07,00,03,8.90
2015,02,07,00,04,8.90
2015,02,07,00,05,8.90
2015,02,07,00,06,8.90
2015,02,07,00,07,8.90
2015,02,07,00,08,8.80
2015,02,07,00,09,8.80
2015,02,07,00,10,8.70
2015,02,07,00,11,8.70
2015,02,07,00,12,8.70
2015,02,07,00,13,8.70
2015,02,07,00,14,8.70
2015,02,07,00,15,8.60
2015,02,07,00,16,8.60
2015,02,07,00,17,8.60
2015,02,07,00,18,8.70
2015,02,07,00,19,8.70
2015,02,07,00,20,8.70
2015,02,07,00,21,8.70
2015,02,07,00,22,8.70
2015,02,07,00,23,8.70
2015,02,07,00,24,8.70
2015,02,07,00,25,8.70
2015,02,07,00,26,8.70
2015,02,07,00,27,8.70
2015,02,07,00,28,8.70
2015,02,07,00,29,8.70
2015,02,07,00,30,8.70
2015,02,07,00,31,8.70
2015,02,07,00,32,8.80
2015,02,07,00,33,8.80
2015,02,07,00,34,8.90
2015,02,07,00,35,8.90
2015,02,07,00,36,8.90
2015,02,07,00,37,9.00
2015,02,07,00,38,9.10
2015,02,07,00,39,9.10
2015,02,07,00,40,9.20
2015,02,07,00,41,9.20
2015,02,07,00,42,9.20
2015,02,07,00,43,9.20
2015,02,07,00,44,9.20
2015,02,07,00,45,9.20
2015,02,07,00,46,9.20
2015,02,07,00,47,9.20
2015,02,07,00,48,9.20
2015,02,07,00,49,9.20
2015,02,07,00,50,9.20
2015,02,07,00,51,9.20
2015,02,07,00,52,9.20
2015,02,07,00,53,9.10
2015,02,07,00,54,9.10
2015,02,07,00,55,9.10
2015,02,07,00,56,9.10
2015,02,07,00,57,9.10
2015,02,07,00,58,9.10
2015,02,07,00,59,9.00
2015,02,07,01,00,9.00
2015,02,07,01,01,8.90
2015,02,07,01,02,8.90
2015,02,07,01,03,8.90
2015,02,07,01,04,8.90
2015,02,07,01,05,8.90
2015,02,07,01,06,8.90
2015,02,07,01,07,8.90
2015,02,07,01,08,8.90
2015,02,07,01,09,8.90
2015,02,07,01,10,8.90
2015,02,07,01,11,8.90
2015,02,07,01,12,8.80
2015,02,07,01,13,8.80
2015,02,07,01,14,8.80
2015,02,07,01,15,8.80
2015,02,07,01,16,8.80
2015,02,07,01,17,8.80
2015,02,07,01,18,8.80
2015,02,07,01,19,8.70
2015,02,07,01,20,8.70
2015,02,07,01,21,8.70
2015,02,07,01,22,8.70
2015,02,07,01,23,8.70
2015,02,07,01,24,8.70
2015,02,07,01,25,8.70
2015,02,07,01,26,8.70
2015,02,07,01,27,8.70
2015,02,07,01,28,8.70
2015,02,07,01,29,8.70
2015,02,07,01,30,8.70
2015,02,07,01,31,8.70
2015,02,07,01,32,8.70
2015,02,07,01,33,8.70
2015,02,07,01,34,8.70
2015,02,07,01,35,8.70
2015,02,07,01,36,8.70
2015,02,07,01,37,8.70
2015,02,07,01,38,8.70
2015,02,07,01,39,8.70
2015,02,07,01,40,8.70
2015,02,07,01,41,8.70
2015,02,07,01,42,8.70
2015,02,07,01,43,8.70
2015,02,07,01,44,8.70
2015,02,07,01,45,8.70
2015,02,07,01,46,8.70
2015,02,07,01,47,8.70
2015,02,07,01,48,8.70
2015,02,07,01,49,8.70
2015,02,07,01,50,8.70
2015,02,07,01,51,8.70
2015,02,07,01,52,8.70
2015,02,07,01,53,8.70
2015,02,07,01,54,8.70
2015,02,07,01,55,8.70
2015,02,07,01,56,8.70
2015,02,07,01,57,8.80
2015,02,07,01,58,8.80
2015,02,07,01,59,8.80
2015,02,07,02,00,8.80
2015,02,07,02,01,8.90
2015,02,07,02,02,8.90
2015,02,07,02,03,8.90
2015,02,07,02,04,8.90
2015,02,07,02,05,8.90
2015,02,07,02,06,8.90
2015,02,07,02,07,8.90
2015,02,07,02,08,9.00
2015,02,07,02,09,9.00
2015,02,07,02,10,9.00
2015,02,07,02,11,9.00
2015,02,07,02,12,9.00
2015,02,07,02,13,9.00
2015,02,07,02,14,9.00
2015,02,07,02,15,9.00
2015,02,07,02,16,9.00
2015,02,07,02,17,9.00
2015,02,07,02,18,9.00
2015,02,07,02,19,9.00
2015,02,07,02,20,9.10
2015,02,07,02,21,9.10
2015,02,07,02,22,9.10
2015,02,07,02,23,9.10
2015,02,07,02,24,9.10
2015,02,07,02,25,9.10
2015,02,07,02,26,9.10
2015,02,07,02,27,9.10
2015,02,07,02,28,9.10
2015,02,07,02,29,9.10
2015,02,07,02,30,9.20
2015,02,07,02,31,9.20
2015,02,07,02,32,9.20
2015,02,07,02,33,9.20
2015,02,07,02,34,9.20
2015,02,07,02,35,9.20
2015,02,07,02,36,9.20
2015,02,07,02,37,9.20
2015,02,07,02,38,9.20
2015,02,07,02,39,9.20
2015,02,07,02,40,9.20
2015,02,07,02,41,9.20
2015,02,07,02,42,9.20
2015,02,07,02,43,9.20
2015,02,07,02,44,9.20
2015,02,07,02,45,9.20
2015,02,07,02,46,9.20
2015,02,07,02,47,9.20
2015,02,07,02,48,9.20
2015,02,07,02,49,9.20
2015,02,07,02,50,9.20
2015,02,07,02,51,9.20
2015,02,07,02,52,9.20
2015,02,07,02,53,9.20
2015,02,07,02,54,9.20
2015,02,07,02,55,9.20
2015,02,07,02,56,9.20
2015,02,07,02,57,9.20
2015,02,07,02,58,9.20
2015,02,07,02,59,9.20
2015,02,07,03,00,9.20
2015,02,07,03,01,9.30
2015,02,07,03,02,9.30
2015,02,07,03,03,9.30
2015,02,07,03,04,9.30
2015,02,07,03,05,9.30
2015,02,07,03,06,9.30
2015,02,07,03,07,9.30
2015,02,07,03,08,9.30
2015,02,07,03,09,9.40
2015,02,07,03,10,9.40
2015,02,07,03,11,9.40
2015,02,07,03,12,9.40
2015,02,07,03,13,9.50
2015,02,07,03,14,9.50
2015,02,07,03,15,9.50
2015,02,07,03,16,9.60
2015,02,07,03,17,9.60
2015,02,07,03,18,9.60
2015,02,07,03,19,9.60
2015,02,07,03,20,9.60
2015,02,07,03,21,9.60
2015,02,07,03,22,9.60
2015,02,07,03,23,9.60
2015,02,07,03,24,9.60
2015,02,07,03,25,9.60
2015,02,07,03,26,9.60
2015,02,07,03,27,9.70
2015,02,07,03,28,9.70
2015,02,07,03,29,9.70
2015,02,07,03,30,9.70
2015,02,07,03,31,9.70
2015,02,07,03,32,9.70
2015,02,07,03,33,9.70
2015,02,07,03,34,9.70
2015,02,07,03,35,9.70
2015,02,07,03,36,9.70
2015,02,07,03,37,9.70
2015,02,07,03,38,9.70
2015,02,07,03,39,9.70
2015,02,07,03,40,9.70
2015,02,07,09,02,9.50
2015,02,07,09,03,9.50
2015,02,07,09,04,9.50
2015,02,07,09,05,9.50
2015,02,07,09,06,9.50
2015,02,07,09,07,9.50
2015,02,07,09,08,9.50
2015,02,07,09,09,9.50
2015,02,07,09,10,9.50
2015,02,07,09,11,9.50
2015,02,07,09,12,9.50
2015,02,07,09,13,9.50
2015,02,07,09,14,9.50
2015,02,07,09,15,9.50
2015,02,07,09,16,9.50
2015,02,07,09,17,9.50
2015,02,07,09,18,9.60
2015,02,07,09,19,9.60
2015,02,07,09,20,9.60
2015,02,07,09,21,9.60
2015,02,07,09,22,9.60
2015,02,07,09,23,9.60
2015,02,07,09,24,9.60
2015,02,07,09,25,9.60
2015,02,07,09,26,9.60
2015,02,07,09,27,9.60
2015,02,07,09,28,9.60
2015,02,07,09,29,9.60
2015,02,07,09,30,9.60
2015,02,07,09,31,9.60
2015,02,07,09,32,9.70
2015,02,07,09,33,9.70
2015,02,07,09,34,9.70
2015,02,07,09,35,9.70
2015,02,07,09,36,9.70
2015,02,07,09,37,9.70
2015,02,07,09,38,9.70
2015,02,07,09,39,9.70
2015,02,07,09,40,9.70
2015,02,07,09,41,9.70
2015,02,07,09,42,9.70
2015,02,07,09,43,9.70
2015,02,07,09,44,9.70
2015,02,07,09,45,9.70
2015,02,07,09,46,9.70
2015,02,07,09,47,9.70
2015,02,07,09,48,9.70
2015,02,07,09,49,9.70
2015,02,07,09,50,9.70
2015,02,07,09,51,9.70
2015,02,07,09,52,9.70
2015,02,07,09,53,9.70
2015,02,07,09,54,9.70
2015,02,07,09,55,9.70
2015,02,07,09,56,9.70
2015,02,07,09,57,9.70
2015,02,07,09,58,9.70
2015,02,07,09,59,9.70
2015,02,07,10,00,9.70
2015,02,07,10,01,9.70
2015,02,07,10,02,9.70
2015,02,07,10,03,9.70
2015,02,07,10,04,9.70
2015,02,07,10,05,9.80
2015,02,07,10,06,9.80
2015,02,07,10,07,9.80
2015,02,07,10,08,9.80
2015,02,07,10,09,9.80
2015,02,07,10,10,9.80
2015,02,07,10,11,9.80
2015,02,07,10,12,9.80
2015,02,07,10,13,9.80
2015,02,07,10,14,9.70
2015,02,07,10,15,9.80
2015,02,07,10,16,9.80
2015,02,07,10,17,9.80
2015,02,07,10,18,9.70
2015,02,07,10,19,9.70
2015,02,07,10,20,9.80
2015,02,07,10,21,9.80
2015,02,07,10,22,9.80
2015,02,07,10,23,9.70
2015,02,07,10,24,9.70
2015,02,07,10,25,9.70
2015,02,07,10,26,9.70
2015,02,07,10,27,9.70
2015,02,07,10,28,9.70
2015,02,07,10,29,9.70
2015,02,07,10,30,9.70
2015,02,07,10,31,9.70
2015,02,07,10,32,9.70
2015,02,07,10,33,9.70
2015,02,07,10,34,9.70
2015,02,07,10,35,9.70
2015,02,07,10,36,9.70
2015,02,07,10,37,9.70
2015,02,07,10,38,9.70
2015,02,07,10,39,9.80
2015,02,07,10,40,9.80
2015,02,07,10,41,9.80
2015,02,07,10,42,9.90
2015,02,07,10,43,9.90
2015,02,07,10,44,9.90
2015,02,07,10,45,9.90
2015,02,07,10,46,9.90
2015,02,07,10,47,9.90
2015,02,07,10,48,9.90
2015,02,07,10,49,9.90
2015,02,07,10,50,9.90
2015,02,07,10,51,9.90
2015,02,07,10,52,9.90
2015,02,07,10,53,9.90
2015,02,07,10,54,9.90
2015,02,07,10,55,9.90
2015,02,07,10,56,9.90
2015,02,07,10,57,9.90
2015,02,07,10,58,10.00
2015,02,07,10,59,10.10
2015,02,07,11,00,10.10
2015,02,07,11,01,10.10
2015,02,07,11,02,10.10
2015,02,07,11,03,10.10
2015,02,07,11,04,10.00
2015,02,07,11,05,9.90
2015,02,07,11,06,9.90
2015,02,07,11,07,9.90
2015,02,07,11,08,9.90
2015,02,07,11,09,9.90
2015,02,07,11,10,9.90
2015,02,07,11,11,9.90
2015,02,07,11,12,9.90
2015,02,07,11,13,9.90
2015,02,07,11,14,9.90
2015,02,07,11,15,9.90
2015,02,07,11,16,10.00
2015,02,07,11,17,10.10
2015,02,07,11,18,10.10
2015,02,07,11,19,10.10
2015,02,07,11,20,10.10
2015,02,07,11,21,10.10
2015,02,07,11,22,9.90
2015,02,07,11,23,9.90
2015,02,07,11,24,9.90
2015,02,07,11,25,9.90
2015,02,07,11,26,9.90
2015,02,07,11,27,9.90
2015,02,07,11,28,9.90
2015,02,07,11,29,9.90
2015,02,07,11,30,9.90
2015,02,07,11,31,9.90
2015,02,07,11,32,9.90
2015,02,07,11,33,9.90
2015,02,07,11,34,9.90
2015,02,07,11,35,9.90
2015,02,07,11,36,9.90
2015,02,07,11,37,9.90
2015,02,07,11,38,10.00
2015,02,07,11,39,10.10
2015,02,07,11,40,10.10
2015,02,07,11,41,10.10
2015,02,07,11,42,10.10
2015,02,07,11,43,10.00
2015,02,07,11,44,9.90
2015,02,07,11,45,9.90
2015,02,07,11,46,9.90
2015,02,07,11,47,9.90
2015,02,07,11,48,9.90
2015,02,07,11,49,9.90
2015,02,07,11,50,9.90
2015,02,07,11,51,9.90
2015,02,07,11,52,9.90
2015,02,07,11,53,9.90
2015,02,07,11,54,9.90
2015,02,07,11,55,9.90
2015,02,07,11,56,9.90
2015,02,07,11,57,9.90
2015,02,07,11,58,9.90
2015,02,07,11,59,9.90
2015,02,07,12,00,9.90
2015,02,07,12,01,9.90
2015,02,07,12,02,9.90
2015,02,07,12,03,9.90
2015,02,07,12,04,9.90
2015,02,07,12,05,9.90
2015,02,07,12,06,10.00
2015,02,07,12,07,10.00
2015,02,07,12,08,10.10
2015,02,07,12,09,10.10
2015,02,07,12,10,10.10
2015,02,07,12,11,10.10
2015,02,07,12,12,10.10
2015,02,07,12,13,10.10
2015,02,07,12,14,10.10
2015,02,07,12,15,10.10
2015,02,07,12,16,10.10
2015,02,07,12,17,10.10
2015,02,07,12,18,10.10
2015,02,07,12,19,10.10
2015,02,07,12,20,10.10
2015,02,07,12,21,10.10
2015,02,07,12,22,10.10
2015,02,07,12,23,10.10
2015,02,07,12,24,10.10
2015,02,07,12,25,10.10
2015,02,07,12,26,10.10
2015,02,07,12,27,10.10
2015,02,07,12,28,10.20
2015,02,07,12,29,10.20
2015,02,07,12,30,10.20
2015,02,07,12,31,10.30
2015,02,07,12,32,10.30
2015,02,07,12,33,10.30
2015,02,07,12,34,10.40
2015,02,07,12,35,10.40
2015,02,07,12,36,10.40
2015,02,07,12,37,10.40
2015,02,07,12,38,10.40
2015,02,07,12,39,10.40
2015,02,07,12,40,10.40
2015,02,07,12,41,10.40
2015,02,07,12,42,10.40
2015,02,07,12,43,10.40
2015,02,07,12,44,10.40
2015,02,07,12,45,10.40
2015,02,07,12,46,10.40
2015,02,07,12,47,10.40
2015,02,07,12,48,10.40
2015,02,07,12,49,10.40
2015,02,07,12,50,10.40
2015,02,07,12,51,10.40
2015,02,07,12,52,10.40
2015,02,07,12,53,10.40
2015,02,07,12,54,10.40
2015,02,07,12,55,10.40
2015,02,07,12,56,10.40
2015,02,07,12,57,10.40
2015,02,07,12,58,10.50
2015,02,07,12,59,10.60
2015,02,07,13,00,10.60
2015,02,07,13,01,10.60
2015,02,07,13,02,10.60
2015,02,07,13,03,10.70
2015,02,07,13,04,10.70
2015,02,07,13,05,10.80
2015,02,07,13,06,10.90
2015,02,07,13,07,10.90
2015,02,07,13,08,11.00
2015,02,07,13,09,11.10
2015,02,07,13,10,11.10
2015,02,07,13,11,11.10
2015,02,07,13,12,11.20
2015,02,07,13,13,11.20
2015,02,07,13,14,11.20
2015,02,07,13,15,11.30
2015,02,07,13,16,11.30
2015,02,07,13,17,11.30
2015,02,07,13,18,11.30
2015,02,07,13,19,11.30
2015,02,07,13,20,11.30
2015,02,07,13,21,11.30
2015,02,07,13,22,11.30
2015,02,07,13,23,11.30
2015,02,07,13,24,11.40
2015,02,07,13,25,11.40
2015,02,07,13,26,11.40
2015,02,07,13,27,11.40
2015,02,07,13,28,11.40
2015,02,07,13,29,11.40
2015,02,07,13,30,11.40
2015,02,07,13,31,11.50
2015,02,07,13,32,11.60
2015,02,07,13,33,11.60
2015,02,07,13,34,11.60
2015,02,07,13,35,11.60
2015,02,07,13,36,11.60
2015,02,07,13,37,11.60
2015,02,07,13,38,11.60
2015,02,07,13,39,11.60
2015,02,07,13,40,11.60
2015,02,07,13,41,11.50
2015,02,07,13,42,11.50
2015,02,07,13,43,11.40
2015,02,07,13,44,11.40
2015,02,07,13,45,11.40
2015,02,07,13,46,11.40
2015,02,07,13,47,11.40
2015,02,07,13,48,11.40
2015,02,07,13,49,11.40
2015,02,07,13,50,11.30
2015,02,07,13,51,11.30
2015,02,07,13,52,11.30
2015,02,07,13,53,11.30
2015,02,07,13,54,11.30
2015,02,07,13,55,11.30
2015,02,07,13,56,11.30
2015,02,07,13,57,11.30
2015,02,07,13,58,11.30
2015,02,07,13,59,11.20
2015,02,07,14,00,11.20
2015,02,07,14,01,11.20
2015,02,07,14,02,11.20
2015,02,07,14,03,11.20
2015,02,07,14,04,11.20
2015,02,07,14,05,11.30
2015,02,07,14,06,11.30
2015,02,07,14,07,11.30
2015,02,07,14,08,11.40
2015,02,07,14,09,11.40
2015,02,07,14,10,11.40
2015,02,07,14,11,11.50
2015,02,07,14,12,11.60
2015,02,07,14,13,11.60
2015,02,07,14,14,11.60
2015,02,07,14,15,11.60
2015,02,07,14,16,11.60
2015,02,07,14,17,11.60
2015,02,07,14,18,11.60
2015,02,07,14,19,11.60
2015,02,07,14,20,11.60
2015,02,07,14,21,11.60
2015,02,07,14,22,11.60
2015,02,07,14,23,11.60
2015,02,07,14,24,11.60
2015,02,07,14,25,11.60
2015,02,07,14,26,11.60
2015,02,07,14,27,11.60
2015,02,07,14,28,11.60
2015,02,07,14,29,11.60
2015,02,07,14,30,11.60
2015,02,07,14,31,11.60
2015,02,07,14,32,11.60
2015,02,07,14,33,11.60
2015,02,07,14,34,11.60
2015,02,07,14,35,11.60
2015,02,07,14,36,11.60
2015,02,07,14,37,11.60
2015,02,07,14,38,11.60
2015,02,07,14,39,11.60
2015,02,07,14,40,11.60
2015,02,07,14,41,11.60
2015,02,07,14,42,11.60
2015,02,07,14,43,11.60
2015,02,07,14,44,11.60
2015,02,07,14,45,11.60
2015,02,07,14,46,11.60
2015,02,07,14,47,11.60
2015,02,07,14,48,11.60
2015,02,07,14,49,11.60
2015,02,07,14,50,11.60
2015,02,07,14,51,11.60
2015,02,07,14,52,11.60
2015,02,07,14,53,11.60
2015,02,07,14,54,11.60
2015,02,07,14,55,11.60
2015,02,07,14,56,11.60
2015,02,07,14,57,11.60
2015,02,07,14,58,11.60
2015,02,07,14,59,11.60
2015,02,07,15,00,11.60
2015,02,07,15,01,11.60
2015,02,07,15,02,11.60
2015,02,07,15,03,11.60
2015,02,07,15,04,11.60
2015,02,07,15,05,11.60
2015,02,07,15,06,11.60
2015,02,07,15,07,11.60
2015,02,07,15,08,11.60
2015,02,07,15,09,11.60
2015,02,07,15,10,11.60
2015,02,07,15,11,11.60
2015,02,07,15,12,11.60
2015,02,07,15,13,11.60
2015,02,07,15,14,11.60
2015,02,07,15,15,11.60
2015,02,07,15,16,11.60
2015,02,07,15,17,11.60
2015,02,07,15,18,11.60
2015,02,07,15,19,11.50
2015,02,07,15,20,11.40
2015,02,07,15,21,11.40
2015,02,07,15,22,11.40
2015,02,07,15,23,11.40
2015,02,07,15,24,11.40
2015,02,07,15,25,11.40
2015,02,07,15,26,11.40
2015,02,07,15,27,11.40
2015,02,07,15,28,11.40
2015,02,07,15,29,11.40
2015,02,07,15,30,11.40
2015,02,07,15,31,11.40
2015,02,07,15,32,11.40
2015,02,07,15,33,11.40
2015,02,07,15,34,11.40
2015,02,07,15,35,11.40
2015,02,07,15,36,11.40
2015,02,07,15,37,11.40
2015,02,07,15,38,11.40
2015,02,07,15,39,11.40
2015,02,07,15,40,11.40
2015,02,07,15,41,11.40
2015,02,07,15,42,11.40
2015,02,07,15,43,11.40
2015,02,07,15,44,11.40
2015,02,07,15,45,11.40
2015,02,07,15,46,11.40
2015,02,07,15,47,11.30
2015,02,07,15,48,11.30
2015,02,07,15,49,11.30
2015,02,07,15,50,11.30
2015,02,07,15,51,11.30
2015,02,07,15,52,11.30
2015,02,07,15,53,11.30
2015,02,07,15,54,11.30
2015,02,07,15,55,11.30
2015,02,07,15,56,11.30
2015,02,07,15,57,11.30
2015,02,07,15,58,11.30
2015,02,07,15,59,11.30
2015,02,07,16,00,11.30
2015,02,07,16,01,11.20
2015,02,07,16,02,11.20
2015,02,07,16,03,11.20
2015,02,07,16,04,11.20
2015,02,07,16,05,11.20
2015,02,07,16,06,11.20
2015,02,07,16,07,11.20
2015,02,07,16,08,11.20
2015,02,07,16,09,11.20
2015,02,07,16,10,11.10
2015,02,07,16,11,11.10
2015,02,07,16,12,11.10
2015,02,07,16,13,11.10
2015,02,07,16,14,11.10
2015,02,07,16,15,11.10
2015,02,07,16,16,11.10
2015,02,07,16,17,11.10
2015,02,07,16,18,11.10
2015,02,07,16,19,11.00
2015,02,07,16,20,10.90
2015,02,07,16,21,10.90
2015,02,07,16,22,10.90
2015,02,07,16,23,10.90
2015,02,07,16,24,10.90
2015,02,07,16,25,10.90
2015,02,07,16,26,10.90
2015,02,07,16,27,10.90
2015,02,07,16,28,10.90
2015,02,07,16,29,10.80
2015,02,07,16,30,10.80
2015,02,07,16,31,10.80
2015,02,07,16,32,10.80
2015,02,07,16,33,10.80
2015,02,07,16,34,10.80
2015,02,07,16,35,10.70
2015,02,07,16,36,10.70
2015,02,07,16,37,10.70
2015,02,07,16,38,10.70
2015,02,07,16,39,10.60
2015,02,07,16,40,10.60
2015,02,07,16,41,10.60
2015,02,07,16,42,10.60
2015,02,07,16,43,10.60
2015,02,07,16,44,10.60
2015,02,07,16,45,10.60
2015,02,07,16,46,10.50
2015,02,07,16,47,10.40
2015,02,07,16,48,10.40
2015,02,07,16,49,10.40
2015,02,07,16,50,10.40
2015,02,07,16,51,10.40
2015,02,07,16,52,10.40
2015,02,07,16,53,10.40
2015,02,07,16,54,10.40
2015,02,07,16,55,10.40
2015,02,07,16,56,10.30
2015,02,07,16,57,10.30
2015,02,07,16,58,10.30
2015,02,07,16,59,10.30
2015,02,07,17,00,10.30
2015,02,07,17,01,10.30
2015,02,07,17,02,10.30
2015,02,07,17,03,10.30
2015,02,07,17,04,10.20
2015,02,07,17,05,10.20
2015,02,07,17,06,10.20
2015,02,07,17,07,10.20
2015,02,07,17,08,10.20
2015,02,07,17,09,10.10
2015,02,07,17,10,10.10
2015,02,07,17,11,10.10
2015,02,07,17,12,10.10
2015,02,07,17,13,10.10
2015,02,07,17,14,10.10
2015,02,07,17,15,10.10
2015,02,07,17,16,10.10
2015,02,07,17,17,10.10
2015,02,07,17,18,10.10
2015,02,07,17,19,10.10
2015,02,07,17,20,10.10
2015,02,07,17,21,10.10
2015,02,07,17,22,10.10
2015,02,07,17,23,10.00
2015,02,07,17,24,9.90
2015,02,07,17,25,9.90
2015,02,07,17,26,9.90
2015,02,07,17,27,9.90
2015,02,07,17,28,9.90
2015,02,07,17,29,9.90
2015,02,07,17,30,9.90
2015,02,07,17,31,9.90
2015,02,07,17,32,9.90
2015,02,07,17,33,9.90
2015,02,07,17,34,9.80
2015,02,07,17,35,9.80
2015,02,07,17,36,9.80
2015,02,07,17,37,9.80
2015,02,07,17,38,9.70
2015,02,07,17,39,9.70
2015,02,07,17,40,9.70
2015,02,07,17,41,9.70
2015,02,07,17,42,9.70
2015,02,07,17,43,9.70
2015,02,07,17,44,9.70
2015,02,07,17,45,9.70
2015,02,07,17,46,9.70
2015,02,07,17,47,9.70
2015,02,07,17,48,9.70
2015,02,07,17,49,9.70
2015,02,07,17,50,9.70
2015,02,07,17,51,9.70
2015,02,07,17,52,9.70
2015,02,07,17,53,9.60
2015,02,07,17,54,9.60
2015,02,07,17,55,9.60
2015,02,07,17,56,9.60
2015,02,07,17,57,9.60
2015,02,07,17,58,9.60
2015,02,07,17,59,9.60
2015,02,07,18,00,9.60
2015,02,07,18,01,9.60
2015,02,07,18,02,9.60
2015,02,07,18,03,9.60
2015,02,07,18,04,9.60
2015,02,07,18,05,9.60
2015,02,07,18,06,9.60
2015,02,07,18,07,9.60
2015,02,07,18,08,9.60
2015,02,07,18,09,9.60
2015,02,07,18,10,9.50
2015,02,07,18,11,9.50
2015,02,07,18,12,9.50
2015,02,07,18,13,9.50
2015,02,07,18,14,9.50
2015,02,07,18,15,9.50
2015,02,07,18,16,9.50
2015,02,07,18,17,9.50
2015,02,07,18,18,9.50
2015,02,07,18,19,9.50
2015,02,07,18,20,9.50
2015,02,07,18,21,9.50
2015,02,07,18,22,9.50
2015,02,07,18,23,9.50
2015,02,07,18,24,9.50
2015,02,07,18,25,9.50
2015,02,07,18,26,9.50
2015,02,07,18,27,9.60
2015,02,07,18,28,9.60
2015,02,07,18,29,9.60
2015,02,07,18,30,9.60
2015,02,07,18,31,9.60
2015,02,07,18,32,9.60
2015,02,07,18,33,9.60
2015,02,07,18,34,9.60
2015,02,07,18,35,9.60
2015,02,07,18,36,9.60
2015,02,07,18,37,9.60
2015,02,07,18,38,9.60
2015,02,07,18,39,9.60
2015,02,07,18,40,9.60
2015,02,07,18,41,9.60
2015,02,07,18,42,9.60
2015,02,07,18,43,9.60
2015,02,07,18,44,9.60
2015,02,07,18,45,9.60
2015,02,07,18,46,9.60
2015,02,07,18,47,9.60
2015,02,07,18,48,9.60
2015,02,07,18,49,9.60
2015,02,07,18,50,9.60
2015,02,07,18,51,9.60
2015,02,07,18,52,9.60
2015,02,07,18,53,9.60
2015,02,07,18,54,9.60
2015,02,07,18,55,9.60
2015,02,07,18,56,9.60
2015,02,07,18,57,9.60
2015,02,07,18,58,9.60
2015,02,07,18,59,9.60
2015,02,07,19,00,9.60
2015,02,07,19,01,9.60
2015,02,07,19,02,9.60
2015,02,07,19,03,9.60
2015,02,07,19,04,9.60
2015,02,07,19,05,9.60
2015,02,07,19,06,9.60
2015,02,07,19,07,9.60
2015,02,07,19,08,9.60
2015,02,07,19,09,9.60
2015,02,07,19,10,9.60
2015,02,07,19,11,9.60
2015,02,07,19,12,9.60
2015,02,07,19,13,9.60
2015,02,07,19,14,9.60
2015,02,07,19,15,9.50
2015,02,07,19,16,9.50
2015,02,07,19,17,9.50
2015,02,07,19,18,9.50
2015,02,07,19,19,9.50
2015,02,07,19,20,9.50
2015,02,07,19,21,9.50
2015,02,07,19,22,9.50
2015,02,07,19,23,9.50
2015,02,07,19,24,9.60
2015,02,07,19,25,9.60
2015,02,07,19,26,9.60
2015,02,07,19,27,9.60
2015,02,07,19,28,9.50
2015,02,07,19,29,9.50
2015,02,07,19,30,9.50
2015,02,07,19,31,9.50
2015,02,07,19,32,9.50
2015,02,07,19,33,9.50
2015,02,07,19,34,9.50
2015,02,07,19,35,9.50
2015,02,07,19,36,9.50
2015,02,07,19,37,9.50
2015,02,07,19,38,9.50
2015,02,07,19,39,9.50
2015,02,07,19,40,9.50
2015,02,07,19,41,9.50
2015,02,07,19,42,9.50
2015,02,07,19,43,9.50
2015,02,07,19,44,9.50
2015,02,07,19,45,9.50
2015,02,07,19,46,9.40
2015,02,07,19,47,9.40
2015,02,07,19,48,9.40
2015,02,07,19,49,9.40
2015,02,07,19,50,9.40
2015,02,07,19,51,9.40
2015,02,07,19,52,9.40
2015,02,07,19,53,9.40
2015,02,07,19,54,9.40
2015,02,07,19,55,9.40
2015,02,07,19,56,9.40
2015,02,07,19,57,9.40
2015,02,07,19,58,9.40
2015,02,07,19,59,9.40
2015,02,07,20,00,9.40
2015,02,07,20,01,9.40
2015,02,07,20,02,9.40
2015,02,07,20,03,9.40
2015,02,07,20,04,9.40
2015,02,07,20,05,9.40
2015,02,07,20,06,9.40
2015,02,07,20,07,9.40
2015,02,07,20,08,9.40
2015,02,07,20,09,9.40
2015,02,07,20,10,9.40
2015,02,07,20,11,9.40
2015,02,07,20,12,9.40
2015,02,07,20,13,9.40
2015,02,07,20,14,9.50
2015,02,07,20,15,9.50
2015,02,07,20,16,9.50
2015,02,07,20,17,9.50
2015,02,07,20,18,9.50
2015,02,07,20,19,9.50
2015,02,07,20,20,9.50
2015,02,07,20,21,9.50
2015,02,07,20,22,9.50
2015,02,07,20,23,9.50
2015,02,07,20,24,9.60
2015,02,07,20,25,9.60
2015,02,07,20,26,9.60
2015,02,07,20,27,9.60
2015,02,07,20,28,9.60
2015,02,07,20,29,9.60
2015,02,07,20,30,9.60
2015,02,07,20,31,9.60
2015,02,07,20,32,9.60
2015,02,07,20,33,9.60
2015,02,07,20,34,9.60
2015,02,07,20,35,9.60
2015,02,07,20,36,9.60
2015,02,07,20,37,9.60
2015,02,07,20,38,9.60
2015,02,07,20,39,9.60
2015,02,07,20,40,9.60
2015,02,07,20,41,9.60
2015,02,07,20,42,9.50
2015,02,07,20,43,9.50
2015,02,07,20,44,9.50
2015,02,07,20,45,9.50
2015,02,07,20,46,9.50
2015,02,07,20,47,9.50
2015,02,07,20,48,9.40
2015,02,07,20,49,9.40
2015,02,07,20,50,9.40
2015,02,07,20,51,9.40
2015,02,07,20,52,9.40
2015,02,07,20,53,9.40
2015,02,07,20,54,9.40
2015,02,07,20,55,9.40
2015,02,07,20,56,9.30
2015,02,07,20,57,9.30
2015,02,07,20,58,9.30
2015,02,07,20,59,9.30
2015,02,07,21,00,9.30
2015,02,07,21,01,9.30
2015,02,07,21,02,9.30
2015,02,07,21,03,9.30
2015,02,07,21,04,9.30
2015,02,07,21,05,9.30
2015,02,07,21,06,9.30
2015,02,07,21,07,9.30
2015,02,07,21,08,9.30
2015,02,07,21,09,9.30
2015,02,07,21,10,9.30
2015,02,07,21,11,9.30
2015,02,07,21,12,9.30
2015,02,07,21,13,9.30
2015,02,07,21,14,9.30
2015,02,07,21,15,9.30
2015,02,07,21,16,9.30
2015,02,07,21,17,9.30
2015,02,07,21,18,9.30
2015,02,07,21,19,9.30
2015,02,07,21,20,9.30
2015,02,07,21,21,9.30
2015,02,07,21,22,9.30
2015,02,07,21,23,9.30
2015,02,07,21,24,9.30
2015,02,07,21,25,9.20
2015,02,07,21,26,9.20
2015,02,07,21,27,9.20
2015,02,07,21,28,9.20
2015,02,07,21,29,9.20
2015,02,07,21,30,9.20
2015,02,07,21,31,9.30
2015,02,07,21,32,9.30
2015,02,07,21,33,9.30
2015,02,07,21,34,9.30
2015,02,07,21,35,9.30
2015,02,07,21,36,9.30
2015,02,07,21,37,9.30
2015,02,07,21,38,9.30
2015,02,07,21,39,9.30
2015,02,07,21,40,9.30
2015,02,07,21,41,9.30
2015,02,07,21,42,9.30
2015,02,07,21,43,9.30
2015,02,07,21,44,9.30
2015,02,07,21,45,9.30
2015,02,07,21,46,9.30
2015,02,07,21,47,9.20
2015,02,07,21,48,9.20
2015,02,07,21,49,9.20
2015,02,07,21,50,9.20
2015,02,07,21,51,9.20
2015,02,07,21,52,9.20
2015,02,07,21,53,9.20
2015,02,07,21,54,9.20
2015,02,07,21,55,9.20
2015,02,07,21,56,9.20
2015,02,07,21,57,9.20
2015,02,07,21,58,9.20
2015,02,07,21,59,9.20
2015,02,07,22,00,9.20
2015,02,07,22,01,9.20
2015,02,07,22,02,9.20
2015,02,07,22,03,9.20
2015,02,07,22,04,9.20
2015,02,07,22,05,9.20
2015,02,07,22,06,9.20
2015,02,07,22,07,9.20
2015,02,07,22,08,9.20
2015,02,07,22,09,9.20
2015,02,07,22,10,9.20
2015,02,07,22,11,9.20
2015,02,07,22,12,9.20
2015,02,07,22,13,9.20
2015,02,07,22,14,9.20
2015,02,07,22,15,9.20
2015,02,07,22,16,9.20
2015,02,07,22,17,9.20
2015,02,07,22,18,9.20
2015,02,07,22,19,9.20
2015,02,07,22,20,9.20
2015,02,07,22,21,9.20
2015,02,07,22,22,9.20
2015,02,07,22,23,9.20
2015,02,07,22,24,9.20
2015,02,07,22,25,9.20
2015,02,07,22,26,9.20
2015,02,07,22,27,9.20
2015,02,07,22,28,9.20
2015,02,07,22,29,9.20
2015,02,07,22,30,9.20
2015,02,07,22,31,9.20
2015,02,07,22,32,9.20
2015,02,07,22,33,9.20
2015,02,07,22,34,9.20
2015,02,07,22,35,9.20
2015,02,07,22,36,9.20
2015,02,07,22,37,9.20
2015,02,07,22,38,9.20
2015,02,07,22,39,9.20
2015,02,07,22,40,9.20
2015,02,07,22,41,9.20
2015,02,07,22,42,9.20
2015,02,07,22,43,9.20
2015,02,07,22,44,9.20
2015,02,07,22,45,9.20
2015,02,07,22,46,9.20
2015,02,07,22,47,9.20
2015,02,07,22,48,9.20
2015,02,07,22,49,9.20
2015,02,07,22,50,9.20
2015,02,07,22,51,9.20
2015,02,07,22,52,9.20
2015,02,07,22,53,9.20
2015,02,07,22,54,9.20
2015,02,07,22,55,9.20
2015,02,07,22,56,9.20
2015,02,07,22,57,9.20
2015,02,07,22,58,9.20
2015,02,07,22,59,9.20
2015,02,07,23,00,9.20
2015,02,07,23,01,9.20
2015,02,07,23,02,9.30
2015,02,07,23,03,9.30
2015,02,07,23,04,9.30
2015,02,07,23,05,9.30
2015,02,07,23,06,9.30
2015,02,07,23,07,9.30
2015,02,07,23,08,9.30
2015,02,07,23,09,9.30
2015,02,07,23,10,9.30
2015,02,07,23,11,9.30
2015,02,07,23,12,9.30